Flag for Canada Weather past 2 weeks in Bathurst, New Brunswick, Canada

Now
75 °F

Broken clouds.


Feels Like: 78 °F
Forecast: 51 / 73 °F
Wind: 9 mph from North

Location: Bathurst Airport

Current Time: Aug 23, 2014 at 4:16:25 PM

Latest Report: Aug 23, 2014 at 3:00 PM


Visibility: 15 mi

Pressure: 30.10 "Hg

Humidity: 54%

Dew point: 57 °F

Location of BathurstLocation

Historic Weather in Bathurst — Graph

°F

Bathurst temperature yesterday

Maximum temperature yesterday: 68 °F (at 12:00 PM)
Minimum temperature yesterday: 54 °F (at 11:00 PM)
Average temperature yesterday: 62 °F

Past Weeks' High & Low Weather Summary

 TemperatureHumidityPressure
High77 °F (Aug 12, 4:00 PM)100% (Aug 10, 1:00 AM)30.22 "Hg (Aug 10, 1:00 AM)
Low48 °F (Aug 10, 6:00 AM)50% (Aug 10, 4:00 PM)29.64 "Hg (Aug 18, 2:00 PM)
Average63 °F83%29.98 "Hg
* Reported Aug 8 3:00 PM — Aug 23 3:00 PM, Bathurst, Weather by CustomWeather, © 2014

Note: Actual official high and low records may vary slightly from our data, if they occured in-between our weather recording intervals... More about our weather records

Advertising

Bathurst weather history for previous 24 hours

 ConditionsComfort  
Time TempWeatherWind HumidityBarometerVisibility
3:00 PM
Aug 23
75 °FBroken clouds.9 mph54%30.10 "Hg15 mi
2:00 PM73 °FScattered clouds.7 mph57%30.11 "Hg15 mi
1:00 PM72 °FBroken clouds.3 mph61%30.12 "Hg15 mi
12:00 PM68 °FPartly sunny.2 mph73%30.14 "Hg15 mi
11:00 AM63 °FBroken clouds.3 mph88%30.16 "Hg15 mi
10:00 AM59 °FLow clouds.2 mph94%30.16 "Hg8 mi
9:00 AM57 °FFog.2 mph100%30.17 "Hg3 mi
8:00 AM55 °FFog.2 mph94%30.17 "Hg1 mi
7:00 AM50 °FFog.2 mph100%30.17 "Hg1 mi
6:00 AM50 °FCool.2 mph100%30.16 "Hg15 mi
5:56 AM50 °FMostly cloudy.2 mph100%30.16 "Hg15 mi
5:00 AM50 °FPassing clouds.No wind100%30.15 "Hg15 mi
4:00 AM52 °FPassing clouds.2 mph100%30.16 "Hg15 mi
3:00 AM50 °FPassing clouds.2 mph100%30.15 "Hg15 mi
2:00 AM50 °FClear.2 mph100%30.16 "Hg15 mi
1:00 AM52 °FPassing clouds.2 mph94%30.16 "Hg12 mi
12:00 AM52 °FPassing clouds.2 mph100%30.17 "Hg15 mi
11:00 PM
Aug 22
54 °FClear.No wind100%30.18 "Hg15 mi
10:00 PM55 °FPassing clouds.No wind94%30.18 "Hg15 mi
9:00 PM59 °FPassing clouds.No wind88%30.18 "Hg15 mi
8:00 PM64 °FScattered clouds.2 mph78%30.17 "Hg15 mi
7:00 PM66 °FPartly sunny.3 mph68%30.17 "Hg15 mi
6:00 PM66 °FOvercast.2 mph73%30.17 "Hg15 mi
5:00 PM66 °FOvercast.5 mph68%30.17 "Hg15 mi
4:00 PM68 °FPartly sunny.7 mph60%30.18 "Hg15 mi
Weather by CustomWeather, © 2014

See weather overviewHow to use our weather pages